Flag for U.S.A. Weather past 2 weeks in Plano, Texas, U.S.A.

Now
73 °F

Mostly cloudy.


Feels Like: 71 °F
Forecast: 67 / 76 °F
Wind: 12 mph from Southeast

Location: McKinney Municipal Airport

Current Time: May 23, 2015 at 12:02:43 PM

Latest Report: May 23, 2015 at 10:53 AM


Visibility: 8 mi

Pressure: 30.10 "Hg

Humidity: 90%

Dew point: 70 °F

Location of PlanoLocation

Historic Weather in Plano — Graph

°F

Plano temperature yesterday

Maximum temperature yesterday: 67 °F (at 5:53 PM)
Minimum temperature yesterday: 59 °F (at 6:53 AM)
Average temperature yesterday: 63 °F

Past Weeks' High & Low Weather Summary

 TemperatureHumidityPressure
High88 °F (May 18, 2:53 PM)100% (May 18, 5:53 AM)30.29 "Hg (May 18, 5:53 AM)
Low55 °F (May 21, 6:53 AM)51% (May 11, 2:53 PM)29.72 "Hg (May 16, 6:53 PM)
Average70 °F83%30.01 "Hg
* Reported May 8 10:53 AM — May 23 10:53 AM, Plano, Weather by CustomWeather, © 2015

Note: Actual official high and low records may vary slightly from our data, if they occured in-between our weather recording intervals... More about our weather records

Advertising

Plano weather history for previous 24 hours

 ConditionsComfort  
Time TempWeatherWind HumidityBarometerVisibility
10:53 AM
Sat, May 23
73 °FMostly cloudy.12 mph90%30.10 "Hg8 mi
9:53 AM71 °FFog.10 mph93%30.13 "Hg6 mi
8:53 AM70 °FFog.9 mph93%30.13 "Hg6 mi
7:53 AM69 °FLow clouds.8 mph93%30.13 "Hg8 mi
7:04 AM69 °FLow clouds.10 mph90%30.12 "Hg10 mi
6:53 AM69 °FOvercast.10 mph90%30.12 "Hg10 mi
5:53 AM68 °FOvercast.7 mph90%30.11 "Hg10 mi
4:53 AM68 °FOvercast.7 mph90%30.11 "Hg10 mi
3:53 AM69 °FOvercast.6 mph87%30.11 "Hg10 mi
2:53 AM69 °FOvercast.6 mph87%30.11 "Hg10 mi
1:53 AM68 °FMostly cloudy.6 mph87%30.10 "Hg10 mi
12:53 AM68 °FOvercast.6 mph87%30.11 "Hg10 mi
11:53 PM
Fri, May 22
67 °FOvercast.5 mph87%30.12 "Hg10 mi
10:53 PM66 °FOvercast.5 mph87%30.12 "Hg10 mi
9:53 PM66 °FOvercast.5 mph87%30.12 "Hg10 mi
8:53 PM66 °FOvercast.5 mph87%30.11 "Hg10 mi
7:53 PM67 °FMostly cloudy.6 mph85%30.11 "Hg10 mi
6:53 PM67 °FMostly cloudy.8 mph85%30.10 "Hg10 mi
5:53 PM67 °FMostly cloudy.7 mph85%30.11 "Hg10 mi
4:53 PM65 °FOvercast.8 mph87%30.12 "Hg10 mi
3:53 PM63 °FOvercast.8 mph90%30.14 "Hg10 mi
3:03 PM60 °FThunderstorms. Mostly cloudy.7 mph96%30.16 "Hg8 mi
2:53 PM60 °FThunderstorms. Fog.8 mph96%30.16 "Hg4 mi
2:02 PM64 °FThunderstorms. Overcast.6 mph73%30.16 "Hg10 mi
1:53 PM65 °FThundershowers. Overcast.12 mph70%30.14 "Hg10 mi
12:53 PM64 °FMore clouds than sun.6 mph70%30.16 "Hg10 mi
Weather by CustomWeather, © 2015

See weather overviewHow to use our weather pages